Back to catalog

SL-12 R/B(2)

AliveGEO
NORAD 16676·ROCKET BODY·🇷🇺 Russia

Launched Apr 4, 1986 from Baikonur Cosmodrome

Loading…

TLE

FreshSource: Space-Track

Epoch: Aug 28, 2026, 18:21 UTC

1 16676U 86027F   26240.76475712 -.00000037  00000-0  00000+0 0  9992
2 16676  11.6151 322.1554 0035064 149.2027 200.8315  0.97689357120723

Track SL-12 R/B(2) in real time with AllMySat

Download on the App Store